Weather in Yelshanka

Russia / Ulyanovsk Oblast     54°05′00″N   48°06′22″E
temp.,
°C
wind,
m/s
gust,
m/s
humid.,
%
clouds,
%
prec.,
mm/h
press.,
hPa
HPBL,
m
12 may, wed
wed1201:00+13nne3486100 0.0 102654
04:00+13ne357915 0.0 102569
07:00+15e4117044 0.0 1026328
10:00+20ese5105382 0.0 10261100
13:00+17ese41065100 0.0 1026388
16:00+17se2564100 0.0 1026238
19:00+16ese2266100 0.0 102521
22:00+15ese376799 0.0 1025150
13 may, thu
thu1301:00+15ese356557 0.0 102595
04:00+13e366353 0.0 1025105
07:00+15e310675 0.0 1024290
10:00+20se7114696 0.0 1024744
13:00+22sse8125056 0.0 10241345
16:00+21ese7125758 0.3 1023906
19:00+21se5115597 0.0 1021354
22:00+16sse3769100 0.4 1022106
14 may, fri
fri1401:00+15sse41174100 0.8 1022211
04:00+14se410675 0.9 1021191
07:00+15sse376917 0.0 1022197
10:00+20s5852100 0.1 1022432
13:00+25s6940100 0.0 1022877
16:00+26s6104030 0.0 10211267
19:00+23s51151100 0.0 1021284
22:00+19sse514533 0.0 1021295
15 may, sat
sat1501:00+16s412575 0.0 1021203
04:00+15sse4115722 0.0 1021154
07:00+17s410615 0.0 1021203
10:00+23s694135 0.0 1020469
13:00+26s793028 0.0 10201109
16:00+27s610355 0.0 10191361
19:00+23sse410480 0.0 1019214
22:00+19sse410495 0.0 1018138
16 may, sun
sun1601:00+17sse4105645 0.0 1018132
04:00+16sse410595 0.0 1018146
07:00+18sse4106524 0.0 1018214
10:00+24s694487 0.0 1017541
13:00+27s71135100 0.0 10171604
16:00+27ssw6938100 0.0 10162439
19:00+24ssw37512 0.0 1016183
22:00+19ssw3460100 0.0 101743